Hourly Weather Lukovets'-Vyshnivs'kyi

Today, 15 May, Saturday

Time Temperature Precipitation Wind Pressure Humidity
00:00 +11°C° 0.5 mm 3 mps 731 mmHg 82%
01:00 +11°C° 0.5 mm 3 mps 731 mmHg 88%
02:00 +10°C° 0 mm 3 mps 732 mmHg 93%
03:00 +10°C° 0.8 mm 4 mps 732 mmHg 93%
04:00 +10°C° 0.8 mm 4 mps 732 mmHg 94%
05:00 +9°C° 0.8 mm 5 mps 732 mmHg 95%
06:00 +10°C° 0.9 mm 4 mps 733 mmHg 95%
07:00 +10°C° 0.9 mm 4 mps 733 mmHg 95%
08:00 +10°C° 0.9 mm 3 mps 734 mmHg 94%
09:00 +11°C° 0.1 mm 3 mps 734 mmHg 90%
10:00 +12°C° 0.1 mm 3 mps 734 mmHg 86%
11:00 +13°C° 0.1 mm 3 mps 734 mmHg 82%
12:00 +15°C° 0.1 mm 2 mps 734 mmHg 78%
13:00 +16°C° 0.1 mm 2 mps 734 mmHg 74%
14:00 +18°C° 0.1 mm 1 mps 734 mmHg 70%
15:00 +18°C° 0.2 mm 1 mps 734 mmHg 68%
16:00 +18°C° 0.2 mm 1 mps 734 mmHg 67%
17:00 +17°C° 0.2 mm 0 mps 734 mmHg 65%
18:00 +16°C° 0.1 mm 1 mps 734 mmHg 72%
19:00 +15°C° 0.1 mm 1 mps 734 mmHg 79%
20:00 +13°C° 0.1 mm 2 mps 733 mmHg 86%
21:00 +12°C° 0 mm 2 mps 733 mmHg 87%
22:00 +12°C° 0 mm 2 mps 733 mmHg 89%
23:00 +10°C° 0 mm 2 mps 733 mmHg 90%

Tomorrow, 16 May, Sunday

Time Temperature Precipitation Wind Pressure Humidity
00:00 +10°C° 0 mm 2 mps 733 mmHg 91%
01:00 +9°C° 0 mm 2 mps 733 mmHg 92%
02:00 +9°C° 0 mm 2 mps 733 mmHg 93%
03:00 +9°C° 0 mm 2 mps 733 mmHg 93%
04:00 +9°C° 0 mm 2 mps 733 mmHg 93%
05:00 +9°C° 0 mm 2 mps 732 mmHg 94%
06:00 +10°C° 0 mm 2 mps 733 mmHg 91%
07:00 +12°C° 0 mm 2 mps 733 mmHg 87%
08:00 +13°C° 0 mm 3 mps 733 mmHg 84%
09:00 +16°C° 0 mm 3 mps 733 mmHg 78%
10:00 +18°C° 0 mm 3 mps 732 mmHg 73%
11:00 +19°C° 0 mm 3 mps 732 mmHg 67%
12:00 +19°C° 1.1 mm 3 mps 732 mmHg 70%
13:00 +19°C° 1.1 mm 3 mps 732 mmHg 73%
14:00 +19°C° 1.1 mm 3 mps 731 mmHg 75%
15:00 +18°C° 1.3 mm 3 mps 731 mmHg 78%
16:00 +18°C° 1.3 mm 3 mps 731 mmHg 81%
17:00 +17°C° 1.3 mm 3 mps 731 mmHg 84%
18:00 +16°C° 0.7 mm 2 mps 731 mmHg 87%
19:00 +15°C° 0.7 mm 1 mps 731 mmHg 90%
20:00 +14°C° 0.7 mm 1 mps 731 mmHg 93%
21:00 +13°C° 0.5 mm 1 mps 731 mmHg 93%
22:00 +13°C° 0.5 mm 1 mps 731 mmHg 93%
23:00 +13°C° 0.5 mm 1 mps 731 mmHg 92%

Day after tomorrow, 17 May, Monday

Time Temperature Precipitation Wind Pressure Humidity
00:00 +13°C° 0 mm 1 mps 731 mmHg 92%
01:00 +13°C° 0 mm 1 mps 731 mmHg 92%
02:00 +12°C° 0 mm 1 mps 731 mmHg 91%
03:00 +12°C° 0 mm 1 mps 731 mmHg 91%
04:00 +12°C° 0 mm 1 mps 731 mmHg 91%
05:00 +11°C° 0 mm 0 mps 731 mmHg 91%
06:00 +12°C° 0 mm 0 mps 732 mmHg 90%
07:00 +12°C° 0 mm 0 mps 732 mmHg 88%
08:00 +13°C° 0 mm 0 mps 732 mmHg 86%
09:00 +14°C° 0 mm 0 mps 732 mmHg 81%
10:00 +18°C° 0 mm 1 mps 732 mmHg 75%
11:00 +19°C° 0 mm 1 mps 731 mmHg 69%
12:00 +20°C° 0 mm 1 mps 731 mmHg 65%
13:00 +21°C° 0 mm 1 mps 731 mmHg 61%
14:00 +22°C° 0 mm 1 mps 730 mmHg 57%
15:00 +21°C° 0.2 mm 1 mps 730 mmHg 59%
16:00 +21°C° 0.2 mm 1 mps 730 mmHg 61%
17:00 +21°C° 0.2 mm 1 mps 729 mmHg 64%
18:00 +18°C° 1.1 mm 2 mps 730 mmHg 73%
19:00 +16°C° 1.1 mm 3 mps 730 mmHg 82%
20:00 +13°C° 1.1 mm 4 mps 730 mmHg 92%
21:00 +12°C° 2 mm 4 mps 730 mmHg 94%
22:00 +12°C° 2 mm 3 mps 730 mmHg 96%
23:00 +11°C° 2 mm 3 mps 730 mmHg 98%

18 May, Tuesday

Time Temperature Precipitation Wind Pressure Humidity
00:00 +11°C° 0.3 mm 3 mps 730 mmHg 97%
01:00 +11°C° 0.3 mm 3 mps 731 mmHg 96%
02:00 +11°C° 0.3 mm 4 mps 731 mmHg 96%
03:00 +11°C° 0 mm 4 mps 731 mmHg 94%
04:00 +10°C° 0 mm 4 mps 731 mmHg 93%
05:00 +9°C° 0 mm 5 mps 731 mmHg 92%
06:00 +10°C° 0 mm 5 mps 731 mmHg 89%
07:00 +10°C° 0 mm 6 mps 732 mmHg 85%
08:00 +11°C° 0 mm 6 mps 732 mmHg 82%
09:00 +13°C° 0 mm 6 mps 732 mmHg 76%
10:00 +14°C° 0 mm 6 mps 733 mmHg 70%
11:00 +15°C° 0 mm 5 mps 733 mmHg 63%
12:00 +15°C° 0.1 mm 5 mps 733 mmHg 62%
13:00 +16°C° 0.1 mm 5 mps 733 mmHg 60%
14:00 +16°C° 0.1 mm 5 mps 733 mmHg 59%
15:00 +17°C° 0.2 mm 4 mps 733 mmHg 62%
16:00 +15°C° 0.2 mm 4 mps 733 mmHg 66%
17:00 +15°C° 0.2 mm 4 mps 733 mmHg 69%
18:00 +14°C° 0.3 mm 3 mps 733 mmHg 75%
19:00 +12°C° 0.3 mm 3 mps 734 mmHg 80%
20:00 +12°C° 0.3 mm 2 mps 734 mmHg 86%
21:00 +10°C° 0.1 mm 2 mps 734 mmHg 88%
22:00 +9°C° 0.1 mm 2 mps 734 mmHg 90%
23:00 +10°C° 0.1 mm 1 mps 735 mmHg 91%

19 May, Wednesday

Time Temperature Precipitation Wind Pressure Humidity
00:00 +9°C° 0.1 mm 1 mps 735 mmHg 92%
01:00 +9°C° 0.1 mm 1 mps 735 mmHg 92%
02:00 +8°C° 0.1 mm 1 mps 735 mmHg 93%
03:00 +8°C° 0 mm 1 mps 735 mmHg 93%
04:00 +8°C° 0 mm 1 mps 735 mmHg 93%
05:00 +8°C° 0 mm 1 mps 735 mmHg 93%
06:00 +8°C° 0 mm 2 mps 735 mmHg 90%
07:00 +10°C° 0 mm 2 mps 736 mmHg 87%
08:00 +12°C° 0 mm 2 mps 736 mmHg 84%
09:00 +12°C° 0.2 mm 3 mps 736 mmHg 79%
10:00 +13°C° 0.2 mm 3 mps 736 mmHg 74%
11:00 +16°C° 0.2 mm 3 mps 736 mmHg 70%
12:00 +16°C° 0.2 mm 3 mps 736 mmHg 68%
13:00 +16°C° 0.2 mm 3 mps 736 mmHg 66%
14:00 +17°C° 0.2 mm 3 mps 735 mmHg 65%
15:00 +16°C° 0.2 mm 3 mps 735 mmHg 68%
16:00 +16°C° 0.2 mm 2 mps 735 mmHg 70%
17:00 +16°C° 0.2 mm 2 mps 735 mmHg 73%
18:00 +14°C° 0.3 mm 2 mps 735 mmHg 78%
19:00 +13°C° 0.3 mm 2 mps 736 mmHg 82%
20:00 +12°C° 0.3 mm 2 mps 736 mmHg 87%
21:00 +10°C° 0.4 mm 2 mps 736 mmHg 89%
22:00 +10°C° 0.4 mm 2 mps 736 mmHg 92%
23:00 +10°C° 0.4 mm 2 mps 736 mmHg 94%

20 May, Thursday

Time Temperature Precipitation Wind Pressure Humidity
00:00 +9°C° 0.3 mm 3 mps 736 mmHg 95%
01:00 +9°C° 0.3 mm 3 mps 737 mmHg 96%
02:00 +9°C° 0.3 mm 3 mps 737 mmHg 96%
03:00 +9°C° 0.5 mm 3 mps 737 mmHg 97%
04:00 +9°C° 0.5 mm 3 mps 737 mmHg 97%
05:00 +9°C° 0.5 mm 3 mps 737 mmHg 97%
06:00 +9°C° 1 mm 3 mps 737 mmHg 97%
07:00 +8°C° 1 mm 4 mps 737 mmHg 96%
08:00 +8°C° 1 mm 4 mps 738 mmHg 95%
09:00 +8°C° 1.7 mm 4 mps 738 mmHg 94%
10:00 +8°C° 1.7 mm 4 mps 738 mmHg 94%
11:00 +9°C° 1.7 mm 3 mps 739 mmHg 93%
12:00 +9°C° 0.6 mm 3 mps 739 mmHg 88%
13:00 +10°C° 0.6 mm 2 mps 739 mmHg 84%
14:00 +12°C° 0.6 mm 2 mps 738 mmHg 80%
15:00 +13°C° 0.2 mm 2 mps 738 mmHg 78%
16:00 +13°C° 0.2 mm 2 mps 738 mmHg 77%
17:00 +13°C° 0.2 mm 3 mps 738 mmHg 76%
18:00 +13°C° 0.1 mm 2 mps 738 mmHg 81%
19:00 +10°C° 0.1 mm 2 mps 738 mmHg 85%
20:00 +9°C° 0.1 mm 2 mps 738 mmHg 90%
21:00 +9°C° 0 mm 2 mps 738 mmHg 90%
22:00 +8°C° 0 mm 2 mps 738 mmHg 91%
23:00 +7°C° 0 mm 2 mps 738 mmHg 92%
Show more

We Need Your Consent

Meteoprog and our Service Providers may store and access personal data such as cookies, device identifiers or other similar technologies on your device and process such data to personalise content and ads, as well as provide social media features and to analyse the traffic.

  • Store and/or access information on your device

    Cookies, device identifiers or other information can be stored or accessed on your device for the purposes indicated above.

  • Personalised ads and content, ad and content measurement, audience insights, and products development

    Ads and content can be personalised based on a profile. More data can be added to better personalise ads and content. Ad and content performance can be measured. Insights about the audience who saw the ads and content can be derived. Such data can be used to develop or improve user’s experience, systems and software.

By clicking ‘I Agree’ you will allow the use of indicated cookies, device identifiers, web beacons or other similar technologies. Your settings can be changed in the browser on your device.

For certain purposes, legitimate interests may be relied on, rather than consent. You can read more about this in our Privacy and Cookie Policy.